Theta_e
310 310 310 310 311 310 310 310 310 311 311 311 312 312 312 312 311 311 311 311 311 311 311 310 310 310 310 310 311 311 311 310 311 311 312 313 314 314 314 313 312 312 312 312 312 313 314 314 314 314 315 315 315 316 315 316 315 320 331 331 323 323 323 321 320 316 317 322 314 312 314 314 316 314 313 315 314 314 314 313 314 315 315 315 315 314 314 313
310 310 310 310 310 310 310 310 310 311 311 311 312 312 312 312 311 311 311 311 311 310 310 310 310 310 310 311 311 311 310 311 311 311 311 313 315 315 314 313 312 313 312 313 313 313 314 314 314 314 315 315 315 315 315 315 314 320 329 328 325 327 319 315 315 312 313 316 313 312 313 314 316 314 314 315 314 313 314 314 313 314 315 314 315 314 314 314
310 310 310 310 310 310 310 310 310 311 311 312 311 312 311 311 311 311 311 311 311 310 310 309 309 309 310 311 310 311 310 311 311 311 312 313 315 315 313 312 313 313 313 313 313 313 314 313 314 314 315 314 315 315 314 315 314 314 321 328 327 320 313 311 313 313 313 314 313 312 313 313 314 314 314 314 313 312 314 315 314 314 315 315 315 314 314 314
310 310 310 310 310 309 310 310 310 311 311 311 311 311 311 311 311 311 311 311 311 310 309 309 309 310 310 311 310 311 310 311 311 312 314 314 314 313 312 313 313 313 313 313 313 313 314 313 314 314 315 314 314 315 313 314 313 312 319 327 319 311 313 315 313 314 314 313 313 312 313 314 313 314 314 313 315 315 314 315 315 315 315 315 315 315 315 314
309 310 310 309 310 309 310 310 311 311 311 311 311 311 310 311 311 311 311 311 310 309 308 308 309 310 310 310 311 310 311 312 312 313 314 314 313 312 313 313 313 313 313 313 313 313 314 314 314 314 315 314 314 315 314 313 313 312 314 315 312 310 315 315 313 314 314 314 313 312 313 315 314 314 314 313 316 317 315 315 316 315 315 315 315 315 315 314
309 309 309 309 309 310 310 310 311 311 311 311 310 310 310 310 311 310 310 310 309 308 308 308 309 310 310 310 310 310 311 313 313 313 313 313 313 312 313 313 313 313 313 313 313 313 314 314 315 314 314 313 313 315 315 313 313 316 313 310 311 311 314 315 313 314 314 314 313 313 314 314 313 314 314 313 315 316 315 316 315 315 315 315 315 314 315 315
309 309 309 310 310 310 310 310 310 310 310 310 310 310 310 310 310 309 309 309 308 308 308 308 309 310 310 310 310 310 310 312 314 313 313 313 313 312 313 313 313 312 312 312 312 313 313 314 315 314 314 313 312 313 315 314 313 319 317 311 312 311 312 314 313 314 314 314 314 314 314 313 314 315 313 313 315 316 315 316 315 315 315 314 315 314 314 314
309 310 310 310 310 310 310 309 309 309 309 308 308 308 308 308 308 308 308 308 307 308 308 308 309 309 310 310 310 310 310 311 313 313 313 313 313 312 313 313 312 313 314 313 313 313 313 314 315 314 314 313 313 313 314 315 314 318 317 312 313 313 313 314 313 314 314 314 313 314 314 313 314 313 312 313 316 315 315 315 315 315 315 315 314 315 314 314
310 310 309 309 309 308 308 307 307 307 307 307 307 307 307 307 307 307 307 307 307 307 308 309 309 309 310 310 310 311 311 311 313 313 313 312 313 312 313 312 314 315 315 315 313 313 314 314 315 315 314 313 314 314 313 316 315 314 315 313 314 314 314 314 314 314 313 313 313 313 314 313 312 312 313 315 314 314 315 314 315 315 314 315 314 314 315 314
309 308 308 307 307 307 306 306 307 307 307 307 307 307 307 307 307 307 307 307 307 308 308 308 309 309 309 309 310 311 311 311 313 314 313 313 312 312 313 313 315 316 316 315 314 314 314 314 315 315 315 314 314 313 313 316 316 313 314 314 314 314 314 314 314 314 314 314 313 314 314 313 312 312 315 316 315 314 314 314 314 315 314 315 315 314 314 314
307 306 306 306 306 306 306 307 307 307 307 307 307 307 307 307 307 307 307 308 308 308 308 309 309 309 309 310 310 311 313 313 313 314 313 313 313 312 313 314 316 316 316 316 315 315 315 314 315 315 315 315 314 314 313 314 314 313 314 315 314 313 314 314 314 314 314 314 313 313 313 312 311 313 315 315 315 315 314 315 314 314 315 314 314 314 314 314
306 306 306 306 307 307 307 308 308 308 308 308 308 308 307 308 308 308 308 308 308 308 308 309 309 309 309 309 309 311 315 315 314 314 313 313 312 312 313 315 316 316 317 317 316 316 315 315 315 315 316 314 315 314 314 314 314 314 315 317 319 319 318 314 312 313 313 314 313 312 314 315 314 313 315 314 314 315 314 314 314 314 315 314 314 314 314 314
308 308 308 308 309 309 309 309 310 309 310 309 309 309 308 308 308 308 308 308 308 308 309 309 309 309 309 309 310 311 312 314 315 314 313 313 312 312 313 314 315 316 316 317 317 317 316 317 315 316 315 314 315 313 314 313 312 316 313 315 323 324 323 313 310 312 312 313 313 312 318 325 322 314 313 314 314 314 314 314 314 314 314 314 314 314 314 313
310 310 310 310 310 310 310 310 310 310 309 309 309 309 309 309 309 309 308 308 308 308 308 308 308 309 308 310 312 312 311 311 314 315 313 313 312 312 313 314 314 315 315 316 317 317 317 317 317 316 314 315 314 313 319 317 316 320 312 318 324 319 325 319 308 311 314 313 312 313 318 323 324 316 312 314 313 314 314 314 314 314 314 314 314 313 314 313
310 310 310 310 310 310 310 309 309 309 308 308 308 308 309 309 309 310 309 309 309 308 309 308 308 309 309 310 310 311 311 310 313 314 313 312 312 313 313 313 314 314 315 316 317 317 317 317 316 316 314 315 315 316 327 325 324 325 314 323 325 315 329 327 309 309 315 313 310 314 319 320 320 315 312 312 313 314 313 314 314 314 314 313 314 314 313 314
310 310 310 309 309 309 309 308 308 308 308 307 307 307 307 307 308 308 309 309 309 309 309 309 309 309 310 310 311 311 311 311 311 313 314 313 312 312 313 313 314 314 315 315 317 317 317 318 316 315 313 314 320 328 335 326 327 330 317 321 326 318 325 325 312 308 310 312 311 313 319 323 320 312 311 312 312 313 312 313 314 313 314 314 314 314 313 314
309 309 309 309 309 308 308 308 308 307 307 307 307 307 307 307 307 307 308 308 309 309 308 310 310 309 310 311 313 313 312 312 311 312 314 314 313 313 313 314 314 314 315 316 317 317 317 317 315 315 314 314 319 329 331 322 325 329 318 319 326 323 320 322 321 312 307 312 314 313 315 319 319 312 311 313 312 312 312 313 314 314 314 314 314 314 314 314
308 308 308 308 308 308 308 307 307 307 307 307 307 307 307 307 306 306 306 306 308 309 308 311 311 310 312 311 312 313 313 313 311 311 313 313 313 313 313 314 314 314 315 316 316 316 316 314 316 319 319 317 319 323 324 322 327 330 324 323 324 321 318 321 325 315 309 313 314 315 315 315 316 312 311 312 311 312 312 313 314 314 314 314 313 314 314 314
308 308 308 307 308 308 307 307 307 307 307 307 307 307 307 307 307 306 306 306 308 310 310 312 311 311 313 312 311 312 313 313 312 312 313 314 313 313 314 314 315 315 315 316 316 315 314 315 318 321 321 320 319 320 321 321 325 329 331 332 328 323 320 322 325 316 310 313 316 316 315 315 315 314 312 311 311 311 312 312 312 313 314 314 314 314 314 314
309 309 308 307 307 307 307 307 307 307 307 307 307 307 307 308 308 308 308 307 307 309 311 312 311 310 313 313 311 311 313 313 313 313 314 314 314 314 315 314 315 315 315 320 319 313 314 318 321 323 323 321 319 317 319 320 321 323 326 328 325 323 322 323 324 315 307 313 320 317 315 315 315 315 313 310 310 309 309 310 311 312 313 313 314 314 315 314
310 309 309 308 308 307 307 307 307 307 306 307 307 307 308 308 309 310 309 308 307 307 309 312 312 311 312 314 313 312 313 313 313 314 314 315 315 315 315 314 317 318 314 315 315 312 315 320 322 323 319 317 317 316 318 319 319 319 321 321 321 322 322 320 320 315 308 313 321 318 315 314 313 313 311 308 309 309 309 309 310 313 313 313 314 314 315 315
312 309 309 308 309 308 307 307 307 306 306 306 307 307 307 307 308 311 311 311 310 308 307 309 311 311 312 312 313 313 313 314 315 315 315 315 316 315 314 316 319 320 315 312 315 317 318 321 321 317 312 313 317 315 315 317 317 319 321 319 320 322 321 320 319 314 310 313 320 320 316 314 313 313 310 308 308 310 311 311 313 314 313 313 314 314 315 314
316 312 308 308 308 308 308 308 306 307 306 306 306 307 307 308 309 310 312 312 313 311 309 309 309 310 311 312 313 314 314 315 315 315 315 315 315 314 313 316 320 320 317 317 321 320 321 324 319 311 310 315 319 315 315 316 316 319 321 320 321 321 319 322 320 314 312 312 317 319 315 313 313 313 312 310 309 310 311 313 314 313 312 313 314 315 314 313
319 316 310 308 307 308 308 308 307 307 306 306 306 306 307 309 309 309 310 312 314 313 310 310 309 308 310 311 312 313 314 315 314 315 316 314 314 314 313 315 318 319 317 317 319 319 321 321 312 309 313 318 319 317 316 318 318 320 320 318 320 321 319 320 320 317 317 316 315 317 318 319 319 317 316 314 310 310 311 312 313 312 313 314 313 312 312 313
321 319 315 309 307 307 308 307 307 307 306 306 306 306 307 308 309 310 310 311 313 314 311 311 311 310 309 310 311 314 314 315 314 314 315 314 314 314 313 313 315 319 317 316 316 317 319 314 310 314 316 316 320 319 319 321 321 323 322 319 318 320 319 318 318 318 322 325 317 314 321 331 329 320 319 318 316 315 312 309 310 314 316 313 312 313 312 312
321 321 318 314 309 308 308 307 307 307 307 307 306 307 306 308 310 310 312 315 314 313 313 312 312 313 310 310 312 313 314 315 314 314 315 315 314 314 315 313 313 316 316 315 315 315 316 311 312 321 319 317 318 318 320 320 319 323 322 319 317 316 317 317 317 318 325 327 315 313 323 328 324 320 322 324 325 325 319 312 310 314 317 314 313 315 314 312
321 321 320 318 313 309 309 308 308 307 307 308 307 307 307 309 312 309 310 316 313 312 315 313 311 313 312 311 312 312 314 315 314 315 315 315 314 313 316 315 313 313 312 313 316 315 315 314 314 320 321 320 318 319 321 317 319 325 319 317 318 316 317 317 317 318 323 322 316 318 325 322 320 320 321 322 323 324 322 320 315 313 316 316 315 316 315 315
322 321 321 320 317 312 309 309 309 307 308 310 308 307 309 311 312 310 311 313 311 312 315 313 311 312 312 312 312 311 312 313 314 316 315 314 315 313 315 315 314 316 311 313 319 314 313 319 318 317 319 319 320 323 321 315 320 323 314 314 318 317 319 318 318 319 319 319 320 321 319 321 325 323 319 319 321 323 324 326 322 315 315 315 315 317 316 316
322 321 320 321 320 316 311 309 310 309 309 310 308 308 311 312 310 312 313 311 311 314 314 313 312 312 312 312 312 311 311 312 314 316 314 314 314 313 315 313 312 315 311 311 318 314 312 316 314 316 319 319 321 320 315 316 320 314 310 314 318 318 320 321 322 322 321 321 323 323 320 321 324 325 323 320 321 325 326 325 321 314 314 315 316 317 317 316
323 322 321 320 319 317 314 311 310 310 310 310 308 309 311 312 311 311 313 312 314 315 311 312 314 312 313 313 312 312 312 312 313 314 314 313 314 313 314 313 311 316 316 313 317 315 311 310 310 314 316 315 317 313 308 313 314 310 315 322 322 323 324 324 325 322 322 324 322 323 323 321 323 325 327 323 322 327 324 322 323 316 314 315 316 317 316 316
322 322 322 321 320 318 316 314 311 310 311 310 310 312 313 315 315 312 312 313 314 316 313 313 314 312 313 314 313 313 312 312 312 314 314 313 314 313 313 314 314 318 319 317 318 315 311 313 313 313 312 311 315 314 309 309 308 313 327 328 323 326 325 324 326 323 325 325 320 319 318 318 322 324 326 324 323 325 322 323 330 324 316 316 316 316 315 315
321 321 322 321 321 320 319 318 314 311 311 312 313 314 313 316 317 315 314 314 316 318 317 316 315 313 314 314 314 314 314 314 312 313 316 314 315 314 314 316 316 318 318 317 318 316 315 317 314 311 311 311 319 321 314 312 311 317 327 324 322 326 324 324 325 323 325 322 315 316 316 316 319 321 323 322 321 322 317 316 321 319 315 317 317 315 315 314
319 320 321 321 321 321 320 320 317 312 311 314 314 315 315 315 316 315 315 317 318 317 317 318 316 314 314 315 315 313 314 316 313 313 315 314 315 315 315 317 316 318 321 317 315 317 318 317 313 314 314 313 318 321 318 318 316 317 322 323 324 325 326 331 327 320 321 320 314 313 316 320 321 321 322 320 318 318 314 311 314 314 315 316 315 313 314 314
318 318 319 320 320 321 320 321 318 312 312 314 314 314 315 315 316 316 315 316 319 318 317 317 315 313 314 317 317 313 313 316 314 315 315 315 317 316 316 317 314 318 324 319 315 318 319 318 317 317 315 315 316 316 320 322 316 315 319 321 323 325 329 334 332 325 323 323 318 313 317 325 326 326 323 315 311 312 313 314 315 314 315 315 313 312 313 313
318 317 317 318 319 318 318 319 318 313 313 314 313 314 314 314 317 319 317 315 321 321 317 315 315 315 316 318 318 313 313 316 314 315 316 315 317 316 316 316 313 317 322 317 317 317 316 319 321 315 312 314 315 313 317 320 317 315 317 320 321 324 326 324 321 321 321 323 322 318 320 324 324 325 320 312 311 313 312 312 312 314 315 313 313 313 312 312
315 316 316 316 317 317 316 317 316 314 313 314 314 314 314 315 318 320 318 316 320 320 316 315 317 318 316 317 317 314 313 317 315 316 317 315 316 316 316 316 313 314 315 314 319 320 317 320 318 311 311 312 312 312 313 315 318 317 316 320 318 316 322 323 316 312 314 319 322 321 322 323 321 322 318 315 318 317 312 311 311 312 313 312 314 315 313 312
313 313 314 315 316 317 317 316 315 314 314 314 314 314 314 316 317 318 318 317 317 317 316 318 319 318 318 317 318 316 315 317 316 316 317 316 317 317 315 316 313 313 313 313 318 321 319 321 316 313 315 312 307 311 311 309 314 319 319 320 315 313 321 325 321 319 319 322 323 321 321 321 321 322 320 318 320 319 318 316 311 310 311 311 313 314 313 312
313 312 312 314 316 317 317 317 315 314 315 314 314 315 315 315 315 316 317 316 315 317 318 320 318 318 318 317 318 317 315 317 316 316 317 316 317 317 315 316 314 312 312 312 316 320 317 318 318 312 315 312 308 312 315 310 310 316 319 316 317 322 324 321 322 325 325 325 326 324 320 319 319 321 321 321 325 328 325 321 318 314 311 310 311 313 312 312
315 313 312 313 315 316 317 317 315 314 316 315 314 315 315 315 314 315 317 315 315 317 318 319 319 318 318 317 318 316 315 317 316 315 318 316 316 316 314 316 316 312 311 311 315 320 317 317 320 312 310 313 313 315 319 317 311 311 314 312 317 324 323 321 322 322 324 325 327 326 323 321 322 323 325 322 325 331 328 327 328 319 310 310 312 312 312 312
314 314 312 313 313 314 316 316 314 314 316 315 313 314 314 315 314 314 316 316 316 317 318 319 320 320 318 317 317 317 316 317 315 315 318 316 316 317 314 315 317 313 311 311 314 318 317 316 319 314 309 313 317 317 317 318 315 314 316 316 317 318 318 321 320 319 324 327 327 327 324 322 324 324 326 323 323 327 329 331 329 316 310 312 312 311 312 312
314 314 313 313 312 313 315 315 314 315 315 313 313 313 313 314 314 314 316 316 316 317 317 318 320 320 319 317 317 317 316 316 315 316 317 316 316 318 315 314 315 314 313 313 314 316 317 317 320 319 314 315 320 317 313 315 316 315 317 317 317 317 318 321 319 318 321 322 325 326 323 322 323 322 326 328 326 324 320 320 319 312 313 315 312 311 313 313
314 314 314 314 313 313 315 314 314 315 314 312 312 312 312 313 314 315 315 316 316 317 317 318 320 320 318 317 317 317 317 317 316 316 317 316 316 318 316 313 313 313 313 315 315 314 318 321 322 321 318 317 317 312 306 310 314 314 316 319 317 316 318 321 321 320 319 318 319 320 321 323 321 321 326 324 317 313 310 309 309 311 315 316 313 313 313 313
313 314 314 313 312 313 315 315 314 314 312 311 311 312 313 313 314 315 316 316 316 317 318 320 320 319 319 319 318 317 317 317 316 315 317 317 316 315 314 312 312 313 314 316 316 314 316 321 320 321 321 318 317 313 307 308 312 313 316 319 317 316 317 320 321 320 320 321 319 318 322 322 316 317 315 307 304 305 306 307 308 310 315 316 314 314 313 312
312 313 313 314 313 313 315 316 315 313 311 311 311 312 312 313 313 314 316 316 317 318 319 319 319 319 319 321 319 317 317 319 318 316 316 318 317 314 312 312 312 314 315 316 317 314 316 320 319 321 324 321 319 318 314 312 312 316 320 318 316 316 317 318 319 319 321 323 321 320 323 320 317 318 312 307 310 310 306 308 310 311 314 315 315 316 315 313
311 312 312 314 314 314 314 315 314 312 310 310 310 311 312 312 313 314 315 315 315 316 318 319 319 318 319 320 319 317 317 319 320 318 316 318 317 312 311 312 312 313 314 314 314 315 318 321 318 318 322 322 321 322 320 316 313 316 321 317 315 317 317 317 318 318 320 321 320 321 323 320 319 319 317 316 320 318 311 311 311 311 313 315 317 317 316 314
309 311 312 313 314 314 314 314 314 312 310 309 310 310 311 312 312 313 313 314 315 315 316 317 317 317 319 320 319 319 318 317 320 322 318 318 319 314 310 311 311 312 313 313 313 316 319 320 317 318 320 320 321 323 322 318 316 316 318 317 315 316 316 317 318 319 320 320 319 320 320 321 320 319 320 320 321 323 319 312 310 312 314 315 317 317 316 316
307 309 312 313 314 314 314 314 314 313 311 310 310 310 310 311 312 312 313 314 315 315 315 316 317 318 320 320 319 320 319 318 319 321 319 318 319 315 310 310 311 312 312 313 313 316 318 319 317 318 319 318 321 325 321 318 318 318 317 316 315 315 315 316 318 319 320 320 320 320 318 320 320 319 322 323 323 325 321 311 310 315 316 316 317 316 316 317
306 307 310 311 311 312 314 314 314 314 312 310 309 309 309 310 311 312 313 313 314 315 316 316 317 318 319 319 320 320 320 320 319 319 319 319 318 315 312 312 311 311 312 313 313 316 319 319 318 319 319 317 320 323 320 318 318 318 317 317 315 314 314 316 317 318 319 320 320 320 321 321 319 317 319 320 319 321 319 314 314 316 316 316 316 315 316 316
305 306 307 308 308 309 311 312 312 313 313 311 309 309 309 310 310 311 312 313 313 314 315 316 316 317 318 318 319 320 319 320 320 319 318 318 319 318 317 316 313 309 311 314 313 313 317 319 318 319 319 318 319 320 319 317 318 317 317 316 315 314 314 315 316 316 317 319 319 320 322 321 318 318 320 318 315 315 315 314 314 315 315 315 315 315 317 317
305 305 306 307 307 307 308 308 310 312 313 312 310 309 309 310 310 310 311 312 313 313 314 316 315 316 317 317 318 319 319 319 320 319 319 318 318 318 318 320 317 311 310 313 312 311 314 318 319 317 318 319 318 319 318 317 317 318 318 316 315 314 314 314 315 315 316 317 317 318 320 319 316 318 319 316 314 315 314 313 313 314 314 314 314 315 316 317
303 304 305 306 306 307 308 308 309 310 311 312 311 309 308 309 310 310 311 311 312 313 314 315 316 316 316 316 317 318 318 318 318 318 318 318 317 317 317 316 316 314 312 311 311 312 313 317 318 317 318 319 318 318 317 315 315 316 318 318 316 314 314 314 314 315 315 317 317 317 318 318 318 319 317 315 314 314 313 312 313 313 314 314 314 315 316 316
302 303 304 305 305 306 308 309 309 309 310 311 311 309 308 309 308 310 311 310 311 312 313 314 315 315 316 315 316 317 316 317 317 316 316 317 315 315 315 313 313 316 314 311 311 312 313 315 317 317 318 319 319 318 316 314 315 317 318 318 316 314 314 314 314 315 315 316 317 318 317 317 318 320 319 319 319 315 312 313 314 314 314 314 314 315 315 316
Wind_Speed
18 17 16 15 14 13 12 11 11 10 9 9 8 7 7 7 7 8 8 9 9 8 8 8 8 8 7 6 5 5 4 4 4 4 3 3 3 3 3 3 2 2 2 3 2 3 2 2 3 2 2 0 3 3 5 4 4 3 3 4 2 4 4 6 8 7 4 2 6 10 11 7 4 7 8 5 5 7 9 11 9 11 14 12 10 9 13 17
18 17 16 15 14 13 12 11 11 10 9 9 8 8 8 8 8 8 9 9 9 9 8 8 8 8 8 6 5 4 4 4 5 5 4 4 5 4 3 3 2 1 1 1 1 2 3 3 3 2 2 1 3 3 3 4 4 3 3 3 3 6 4 5 8 9 4 2 8 11 9 8 6 9 9 4 3 6 6 8 10 11 14 13 12 12 14 17
18 18 16 15 14 13 12 11 11 11 10 9 9 8 8 8 9 9 9 10 9 9 8 8 8 8 7 6 5 4 3 4 5 5 5 6 5 5 4 4 3 2 1 3 2 2 2 3 2 1 1 3 4 4 4 5 3 2 4 3 4 7 3 3 7 9 6 1 7 11 8 7 7 9 9 5 3 4 6 10 11 13 15 15 14 14 15 18
19 19 17 15 14 13 12 12 11 11 10 10 9 8 9 9 9 9 9 9 9 8 8 9 9 9 7 6 4 3 3 3 4 4 5 6 6 6 7 6 5 3 1 3 4 4 2 2 1 1 3 3 4 4 4 6 3 1 4 3 5 5 1 3 5 6 8 4 6 10 7 5 7 9 9 6 3 4 12 16 16 15 14 14 16 15 15 18
20 19 17 16 15 14 13 12 12 11 10 10 9 9 9 9 9 9 9 9 9 8 9 9 9 9 7 6 4 3 0 2 2 5 4 6 7 8 9 7 5 3 2 2 3 4 3 1 1 1 3 3 4 4 3 6 4 3 2 2 4 5 2 2 3 4 8 6 7 9 6 5 7 8 10 10 6 7 12 15 16 15 13 12 14 16 16 18
20 18 17 16 15 14 13 13 12 11 11 10 10 10 9 9 9 9 9 9 9 8 9 9 9 8 7 6 4 4 3 1 3 6 5 7 8 9 9 7 5 4 5 4 3 3 2 1 2 2 3 3 4 4 3 5 3 2 2 1 5 4 1 2 3 4 7 8 9 8 5 6 8 6 10 14 15 14 11 9 10 12 13 13 14 16 17 18
19 18 17 16 15 15 14 13 12 12 12 11 10 10 9 9 9 9 9 8 9 9 9 9 8 8 6 6 4 4 5 2 4 8 7 8 9 9 8 6 5 5 5 4 4 3 2 0 2 4 5 3 1 2 4 5 4 4 2 1 4 3 2 2 4 5 7 6 7 6 5 6 8 6 6 15 22 20 16 13 12 12 13 15 15 17 18 18
19 18 18 17 16 15 14 13 13 12 11 11 10 10 9 9 9 9 9 8 9 9 9 9 8 8 6 6 5 4 6 5 5 8 8 8 8 7 7 4 4 4 3 3 3 2 0 1 4 5 4 3 2 1 4 4 5 5 2 1 3 2 2 4 4 5 5 4 4 5 5 5 7 6 7 17 21 18 20 19 17 15 14 15 17 18 18 19
20 19 18 17 16 15 15 14 14 12 11 10 10 10 9 9 9 9 9 9 9 9 9 9 8 7 6 6 5 3 5 6 7 9 8 8 7 6 5 3 2 1 1 1 1 1 1 3 4 3 3 4 4 3 4 3 2 3 3 2 2 1 1 4 5 5 5 5 4 5 5 4 5 5 10 22 22 18 19 19 18 17 16 16 16 18 19 19
20 19 19 18 17 16 15 15 14 13 12 11 10 10 9 9 9 9 9 9 9 9 9 9 8 7 7 6 4 2 5 6 7 10 10 8 7 6 4 3 1 2 4 4 3 2 3 4 4 6 6 5 5 4 5 4 1 2 3 2 1 1 2 3 6 5 6 7 6 6 4 4 4 3 8 17 17 17 19 18 18 18 17 17 17 18 19 19
18 18 18 18 17 17 16 15 14 14 13 12 11 11 10 10 10 9 9 9 9 9 9 9 8 8 7 6 6 4 3 5 7 11 11 9 8 6 4 4 2 3 3 4 4 4 5 5 5 6 4 4 4 4 4 4 4 3 3 0 2 4 4 5 6 7 6 5 7 7 4 3 2 3 12 16 12 15 17 18 19 18 18 17 18 19 19 20
16 16 16 16 16 16 16 15 14 14 13 13 13 12 11 11 10 10 10 9 9 9 9 9 8 9 8 7 10 9 4 3 5 11 13 10 9 7 5 5 3 2 2 3 4 4 5 5 4 3 3 6 4 3 4 4 3 4 5 1 5 8 5 5 5 6 6 3 4 4 3 4 4 10 19 16 13 14 15 17 18 19 19 19 19 20 21 21
14 14 14 14 14 14 14 14 14 13 13 13 13 13 12 12 11 11 10 9 9 9 9 9 9 9 7 7 10 10 9 7 6 11 14 12 10 9 7 6 4 3 2 1 3 4 4 4 3 4 6 6 3 4 5 4 3 2 4 1 4 8 5 3 1 3 6 3 4 6 3 6 8 17 18 13 13 14 16 19 19 20 20 21 22 22 22 22
14 14 13 13 13 13 14 13 13 12 12 12 12 12 12 12 12 11 11 10 10 10 10 10 9 9 8 8 8 8 10 10 8 11 15 14 12 10 8 6 5 4 3 2 2 2 3 3 4 5 6 5 5 7 4 4 4 1 1 2 3 2 5 5 0 5 6 4 7 8 3 7 8 13 12 12 14 15 18 20 20 21 21 23 24 24 25 24
15 15 14 14 14 13 13 13 13 12 11 11 10 10 10 11 12 12 11 11 10 10 10 10 9 8 6 8 10 9 10 11 11 12 14 16 14 12 10 7 6 5 4 3 2 2 1 1 2 5 6 6 7 6 3 4 4 3 1 3 3 1 5 8 2 8 5 2 8 7 3 7 9 10 8 11 14 16 20 20 20 22 22 24 25 25 27 26
17 16 16 16 15 15 14 14 13 11 11 10 9 9 9 10 10 11 11 11 11 10 10 9 9 7 4 6 9 9 11 13 14 14 15 16 15 13 12 9 7 6 4 4 3 2 1 0 3 5 5 5 5 4 4 3 4 4 1 3 2 2 3 7 2 6 2 2 5 4 3 4 5 4 3 7 14 17 20 20 20 22 23 25 26 27 28 28
18 18 18 17 17 16 16 15 13 12 11 10 9 8 8 8 9 9 10 10 10 9 9 7 6 6 5 6 8 10 13 16 16 17 17 17 16 15 13 10 8 7 5 5 4 3 1 1 4 3 3 3 3 4 4 2 4 4 2 1 3 2 2 3 4 3 2 2 3 4 4 7 8 6 5 4 10 15 19 22 22 22 24 25 26 28 29 30
20 20 19 19 19 18 17 16 14 13 12 11 10 9 8 7 7 7 8 9 9 7 6 6 5 1 6 11 11 11 13 16 17 17 18 18 17 15 13 9 7 6 5 4 3 2 1 2 4 1 3 3 2 5 3 4 4 3 2 1 3 2 2 4 4 2 3 1 3 4 5 11 13 14 17 13 11 16 20 22 22 23 25 26 27 29 30 32
22 22 21 21 20 20 20 18 16 15 14 12 11 9 8 6 5 5 7 9 10 7 3 10 13 4 3 12 16 15 12 12 15 17 17 18 17 16 13 8 6 6 5 3 1 2 3 3 5 2 1 2 4 7 7 8 6 6 6 4 4 3 3 5 6 4 4 2 4 7 8 11 11 13 18 17 13 18 21 23 25 27 28 28 29 31 32 34
22 23 23 23 22 22 22 20 18 17 15 13 12 9 7 4 2 2 8 13 16 15 7 10 19 11 2 4 13 16 12 10 14 17 18 19 18 16 12 8 6 5 4 3 2 2 3 3 2 4 7 8 9 8 6 5 6 5 5 3 3 4 5 5 5 5 2 3 6 8 8 10 11 11 16 16 11 15 20 23 28 31 32 33 33 34 35 36
18 21 23 24 24 24 24 22 20 19 17 15 13 10 6 7 4 1 7 13 18 23 16 9 15 17 9 3 5 12 12 11 13 18 19 19 18 13 10 8 6 3 1 4 4 2 4 3 6 10 9 7 7 6 6 5 5 4 4 2 2 3 6 7 4 4 1 3 6 6 6 11 11 12 17 15 7 14 22 24 29 34 35 35 36 38 39 37
14 18 21 23 25 25 25 23 22 21 19 17 16 13 9 9 9 5 4 6 12 19 22 18 15 17 17 11 7 11 12 9 11 18 20 20 19 13 10 8 5 3 2 4 5 2 2 3 12 10 5 6 3 5 6 5 4 3 3 1 3 3 5 7 4 4 1 3 4 5 6 10 10 11 15 18 16 20 27 28 33 37 34 35 38 40 40 38
12 14 17 21 23 24 25 24 23 22 21 20 18 16 12 11 11 9 4 4 8 13 19 23 22 21 21 17 13 13 13 8 10 18 22 22 20 15 12 9 4 4 4 4 6 4 2 6 11 8 9 7 4 4 7 5 2 2 3 3 3 3 2 4 4 4 1 2 2 4 7 8 8 9 12 23 25 23 29 33 37 39 35 37 41 40 39 38
13 13 15 18 20 22 23 23 23 23 22 21 20 18 15 12 11 9 6 4 6 9 14 19 23 26 26 20 16 16 16 11 10 18 24 25 21 14 12 10 6 4 5 8 8 6 6 6 3 6 9 7 5 4 7 5 3 4 5 6 5 4 6 6 4 5 3 2 4 4 8 7 7 9 10 13 12 15 26 31 34 40 40 42 42 39 39 38
14 13 13 15 18 20 20 21 22 22 21 22 21 18 16 14 10 6 3 2 5 6 9 13 17 23 27 23 19 16 13 12 13 17 24 28 25 14 8 9 7 4 6 7 6 5 8 5 3 6 4 6 7 4 6 7 3 5 5 10 10 8 7 5 3 5 4 4 4 4 5 6 4 7 10 6 3 8 17 17 25 37 39 38 39 40 40 37
16 15 13 14 16 18 18 18 18 20 22 23 20 17 17 14 9 6 3 3 4 3 3 9 10 12 20 22 21 14 5 10 15 18 23 28 26 15 7 6 4 3 6 6 3 3 4 3 4 6 5 6 6 3 6 7 5 3 5 8 10 7 4 4 0 2 1 4 4 3 1 7 5 5 9 6 5 9 10 10 20 32 34 32 34 36 36 35
19 18 16 15 16 19 20 16 17 21 20 19 18 17 17 14 10 8 5 4 5 5 6 8 9 10 13 18 26 18 2 6 12 16 25 28 24 15 7 5 3 2 6 6 2 3 3 4 3 5 5 5 5 4 6 8 7 3 4 5 7 6 5 5 4 3 3 3 4 3 3 5 8 6 6 5 7 9 10 12 18 28 33 31 31 32 31 32
22 21 19 18 17 20 21 17 18 22 18 14 16 19 17 15 13 8 5 1 3 5 6 7 9 12 12 18 29 19 5 10 9 12 26 28 22 12 6 8 7 5 8 8 4 3 4 7 7 7 5 4 6 5 7 11 5 5 3 5 6 6 5 4 5 3 1 3 5 2 4 3 9 6 2 0 5 7 11 14 16 22 26 23 25 27 26 28
25 23 22 20 17 19 21 21 19 19 16 10 14 20 18 18 13 7 4 2 2 3 2 6 8 9 12 18 23 14 8 7 3 11 24 25 21 10 2 9 9 6 7 6 5 2 1 4 8 8 6 6 5 2 6 11 5 4 6 7 6 5 5 5 4 3 3 2 6 6 6 3 7 4 3 2 3 7 10 12 13 18 19 17 19 19 18 20
28 26 25 22 20 20 22 25 21 15 14 12 17 22 22 19 10 5 2 3 2 1 3 7 6 9 15 14 8 5 5 2 5 15 16 14 16 8 4 8 6 5 2 5 4 3 1 1 3 5 4 5 5 3 1 5 6 8 7 6 6 6 5 4 2 4 2 5 6 7 10 6 5 3 4 3 5 7 9 8 10 15 16 14 13 12 12 15
29 30 29 27 27 25 24 27 24 19 19 20 24 28 23 11 4 3 6 1 1 1 4 4 3 8 15 11 5 4 3 2 8 16 9 5 9 6 5 6 3 4 1 5 4 3 2 1 1 3 4 6 8 5 5 4 6 7 5 5 4 4 4 4 4 4 1 6 3 3 5 7 8 6 3 6 6 5 7 8 9 11 13 11 7 8 10 11
29 33 33 32 31 29 29 28 23 22 23 25 32 32 19 5 1 4 5 2 1 4 5 4 3 7 10 7 5 7 4 2 6 10 6 4 6 7 6 6 6 3 2 7 4 3 2 4 2 1 4 7 6 5 4 4 2 3 4 6 4 2 3 3 3 1 3 7 3 2 1 4 9 8 7 9 10 9 10 12 14 14 19 18 12 10 11 11
28 33 35 35 34 34 32 28 22 23 26 30 32 22 9 3 6 9 8 3 2 3 3 3 3 6 10 7 4 5 4 2 6 5 3 4 5 7 7 5 6 4 2 6 3 0 3 5 1 2 3 8 9 6 3 1 2 5 5 6 4 2 1 2 3 2 5 6 3 1 1 3 5 5 10 15 15 15 15 18 21 21 24 25 20 16 15 14
25 28 33 37 37 36 35 31 25 26 29 31 24 10 4 6 8 10 14 10 2 2 3 4 6 6 8 5 4 7 4 3 6 5 3 5 5 7 6 6 7 2 3 4 2 6 5 6 5 6 3 11 13 8 7 6 5 5 4 5 5 5 5 4 4 4 5 4 3 2 1 3 3 3 8 11 11 14 19 23 24 26 29 28 25 22 20 19
22 21 26 36 39 38 37 36 29 29 35 32 15 5 8 9 6 9 12 9 2 3 3 3 8 7 5 2 2 6 4 2 6 5 3 6 6 7 7 8 10 6 5 4 2 4 4 7 7 3 2 12 12 6 7 8 2 3 3 4 3 5 5 2 3 4 2 3 4 2 4 5 4 6 9 9 9 11 16 19 21 28 31 27 28 28 25 23
22 19 18 28 41 43 39 37 31 33 43 33 12 7 11 9 8 7 6 6 5 5 6 4 4 4 5 2 2 5 2 1 6 5 3 5 4 7 7 7 12 12 9 7 3 2 3 5 5 3 1 5 5 3 5 4 3 2 3 4 4 4 6 3 2 1 4 3 4 2 5 5 3 8 8 6 10 11 9 12 17 24 24 22 27 29 26 24
21 21 17 21 36 43 42 41 34 36 41 26 10 11 10 9 10 6 3 5 8 10 9 4 3 5 7 4 4 8 3 2 5 5 4 3 3 7 8 5 10 16 15 9 3 3 4 4 4 1 1 3 1 4 4 3 4 5 4 6 3 2 3 3 2 3 3 3 5 1 5 5 2 6 4 2 6 10 9 11 15 18 17 19 26 27 24 24
15 20 23 24 29 37 43 44 38 41 34 14 9 11 7 10 12 6 3 5 9 11 9 7 6 6 7 7 6 8 6 4 6 6 5 4 5 8 11 6 8 18 21 12 3 3 4 3 5 1 2 2 2 4 2 4 3 4 4 5 4 2 1 2 2 2 1 3 5 3 5 5 5 6 3 1 7 9 9 10 10 12 16 18 21 20 20 21
13 14 21 27 28 31 39 42 43 44 26 8 8 9 5 10 12 6 4 6 7 9 9 9 7 4 6 8 5 7 8 7 9 7 5 5 5 7 14 11 8 15 22 17 7 2 3 3 4 1 1 1 2 2 5 2 1 3 2 3 2 2 4 3 3 3 3 3 4 4 5 5 7 7 6 9 11 9 8 8 7 12 16 14 13 13 14 15
16 11 14 23 25 23 31 40 42 33 14 6 10 8 5 8 11 13 14 9 6 7 8 8 7 5 5 6 4 5 8 7 9 8 5 6 6 5 11 13 5 6 16 18 9 1 3 3 4 2 3 1 3 4 8 9 6 3 3 4 3 1 2 1 1 2 4 3 2 2 7 9 5 4 8 10 9 9 9 7 7 12 13 9 10 10 10 11
17 10 8 17 18 16 28 34 27 16 7 6 9 8 8 6 5 14 22 16 7 7 6 5 7 7 6 7 5 5 7 6 7 7 4 7 8 5 9 15 11 9 9 10 9 5 3 3 4 2 1 4 5 4 5 7 7 7 7 8 9 6 4 2 2 2 3 3 4 4 7 11 5 4 7 7 7 9 9 7 8 12 11 9 11 10 9 11
16 9 5 10 11 16 28 22 10 9 8 8 10 9 8 6 3 8 15 14 7 5 4 3 5 7 6 7 7 6 7 6 6 7 5 8 11 7 10 20 22 20 14 7 9 9 5 3 3 3 4 6 6 3 2 3 2 2 3 5 6 6 6 6 6 4 3 2 2 4 4 10 4 4 5 5 5 6 6 7 11 15 12 9 11 10 10 12
16 14 8 8 11 20 24 10 5 9 6 7 11 8 7 6 4 6 9 10 7 3 4 3 3 7 6 5 6 8 8 7 8 11 8 8 11 9 12 21 24 20 12 4 4 5 5 3 4 3 2 3 4 4 3 1 2 1 2 2 6 8 9 6 4 4 4 4 3 4 5 9 2 1 3 4 5 6 8 11 14 16 11 7 10 11 12 12
14 17 12 11 16 22 17 6 5 8 6 8 8 8 11 9 6 8 9 11 10 5 5 5 3 5 5 3 6 9 11 8 8 12 11 7 7 8 14 25 23 15 10 8 8 11 8 4 5 3 1 3 4 4 2 1 2 3 3 4 8 10 7 3 1 3 3 9 10 6 9 9 2 3 3 2 3 5 10 12 13 16 12 6 9 13 15 15
9 12 11 16 27 28 19 12 9 5 6 10 8 9 13 9 9 15 12 10 12 7 5 5 4 4 3 3 4 7 11 11 7 9 9 6 2 2 12 24 25 17 12 10 14 17 10 4 7 8 7 9 8 6 5 4 3 2 4 7 10 11 12 7 3 3 6 9 10 8 13 8 2 4 5 4 3 5 10 11 13 17 12 6 10 16 20 19
5 5 5 12 28 33 25 22 18 8 5 8 5 7 12 9 9 15 14 10 12 13 8 3 3 5 3 4 5 6 10 13 8 4 5 7 4 0 7 19 23 20 12 7 15 15 3 3 11 14 13 15 12 6 5 10 8 7 10 12 13 14 16 11 6 7 8 4 6 14 19 11 6 5 5 6 5 6 7 9 14 15 9 8 14 20 22 21
5 3 4 6 15 21 19 19 18 9 8 10 5 4 11 13 8 7 12 13 13 15 11 4 4 7 6 8 9 7 9 10 7 5 5 7 3 2 2 9 15 17 9 7 14 12 2 3 12 15 17 18 14 7 8 13 14 17 17 17 17 17 16 14 14 15 9 6 10 18 13 12 17 12 8 8 7 5 7 11 15 14 12 17 22 22 22 21
8 4 5 5 4 6 7 11 14 12 12 13 6 3 7 12 9 6 9 12 13 13 9 4 8 12 12 13 10 7 7 7 8 9 9 6 3 1 1 2 7 12 9 7 11 8 2 6 10 12 17 20 14 6 9 12 13 15 18 19 20 19 19 20 23 20 11 10 18 14 10 13 23 16 10 9 7 9 14 17 19 20 23 26 24 22 22 22
11 8 8 7 4 4 5 4 7 10 12 12 8 6 8 9 11 10 6 5 7 9 10 9 13 17 17 15 11 9 9 8 9 12 10 8 5 4 3 2 5 10 9 7 7 4 3 7 10 10 12 18 15 7 8 11 8 8 14 17 18 21 24 26 26 21 14 15 21 11 7 16 20 11 9 11 16 23 25 22 21 24 26 25 22 21 23 24
13 8 7 7 6 8 10 7 3 4 8 9 7 7 10 11 13 12 9 8 7 6 11 15 18 17 15 15 13 13 13 14 14 13 10 9 7 5 6 5 3 6 7 5 2 2 5 6 5 5 5 13 14 8 8 10 8 7 9 12 16 21 24 24 21 17 13 17 20 13 12 18 12 6 9 14 20 23 21 20 22 24 25 23 21 23 24 25
19 13 9 4 2 5 7 6 4 4 5 6 6 5 7 11 15 12 9 13 13 8 9 16 19 13 10 12 13 15 18 18 15 9 6 11 13 9 8 7 6 6 6 5 3 2 5 3 1 4 5 13 12 9 8 5 3 5 9 14 20 20 18 17 16 15 15 17 18 14 15 17 6 6 9 13 15 15 16 21 24 25 26 25 25 26 27 27
24 21 17 10 3 4 4 2 4 5 4 5 7 7 7 10 14 10 6 10 15 15 13 14 14 10 6 9 14 19 21 17 12 8 6 11 15 12 10 10 11 10 7 5 3 4 6 5 3 5 7 12 9 8 8 4 1 6 13 21 23 18 13 13 14 17 19 17 15 13 17 19 8 5 7 8 9 11 16 24 28 29 28 27 27 28 28 29
Wind_Direction
196 194 196 197 197 197 198 200 200 203 206 210 215 220 224 225 219 214 206 201 197 195 198 202 207 207 202 205 217 238 247 248 242 226 237 242 214 217 263 262 249 262 268 269 242 238 262 301 299 273 261 44 71 75 76 68 79 89 98 92 149 178 192 191 178 187 161 187 206 186 182 167 157 172 172 173 179 190 191 198 210 215 221 235 241 226 210 207
197 197 201 202 203 203 203 204 205 206 209 213 218 225 230 228 222 212 204 200 197 198 200 204 208 205 203 208 223 245 253 257 248 238 246 233 220 228 240 214 207 234 306 331 279 257 266 289 292 249 238 115 62 59 80 51 56 75 104 101 199 194 205 195 177 188 165 91 183 180 184 180 173 172 169 179 196 183 193 214 220 224 224 231 234 220 210 208
198 200 203 205 207 207 207 207 209 210 211 216 222 227 231 230 221 212 205 202 200 202 203 206 207 202 205 214 228 247 260 265 255 251 242 226 223 215 201 186 171 146 86 53 51 6 288 281 291 213 127 105 59 60 75 40 46 66 96 101 231 210 225 210 192 204 207 181 168 174 184 185 183 176 177 197 197 196 218 218 217 223 225 226 224 217 214 212
200 201 204 206 209 209 209 210 212 214 216 219 223 225 228 226 219 214 210 206 205 207 206 206 203 202 208 217 227 241 273 286 253 243 232 219 215 195 182 180 173 162 101 52 47 30 1 307 279 161 94 89 37 53 49 25 37 67 100 154 216 188 170 207 212 221 214 213 176 172 167 183 193 185 193 187 160 248 240 228 228 233 233 230 223 221 220 217
201 203 203 205 208 209 210 211 215 217 219 221 221 221 220 219 217 215 213 211 211 211 209 205 201 204 212 218 225 215 153 10 225 208 210 206 195 183 179 184 194 213 256 328 4 19 21 16 141 122 79 63 23 47 26 20 65 75 54 209 169 144 122 198 201 197 196 193 174 166 157 188 190 193 210 197 191 240 243 241 242 243 244 241 236 231 225 222
202 203 202 204 206 209 211 214 217 217 219 218 216 215 213 214 216 216 216 215 216 215 210 205 204 208 214 221 227 208 183 44 185 177 167 175 172 174 183 197 215 248 269 277 304 353 22 74 130 108 76 53 22 53 37 15 58 91 7 205 157 152 52 172 178 164 171 174 173 171 181 191 179 206 227 216 226 239 246 251 246 246 242 241 242 236 233 230
200 201 201 203 205 208 211 213 214 214 214 212 211 211 209 212 214 216 217 217 217 215 209 207 208 213 220 226 229 224 230 255 178 169 157 158 163 172 186 209 234 266 277 268 276 307 353 357 130 109 89 71 60 71 37 25 55 101 97 105 175 216 302 180 180 169 165 176 188 185 195 197 190 213 241 234 240 244 248 252 249 255 248 240 238 234 237 236
197 199 200 201 203 204 206 206 206 209 209 208 208 208 208 210 211 214 214 214 215 211 209 207 210 216 223 230 234 246 246 241 193 180 166 161 165 173 187 218 262 288 287 269 268 264 328 137 140 118 97 85 123 94 29 42 45 61 130 187 170 222 268 198 193 186 186 208 215 211 216 219 216 227 259 250 250 248 249 253 254 258 253 245 237 234 235 234
195 196 197 198 198 198 198 199 200 202 203 204 205 205 205 206 208 209 210 211 209 209 209 207 213 220 225 232 238 256 241 226 209 196 180 173 171 175 199 238 274 301 29 37 13 210 156 137 147 137 136 130 114 71 38 62 9 33 129 157 136 50 316 207 210 204 219 242 231 228 238 247 233 243 266 257 254 252 250 253 255 255 251 245 238 234 233 234
195 194 194 194 195 195 195 196 196 196 195 197 199 200 202 203 205 205 206 207 207 209 210 211 217 221 228 235 227 232 231 220 213 201 190 186 178 178 209 228 197 92 62 62 67 85 125 128 133 128 126 125 106 62 35 64 102 77 91 104 105 340 317 238 229 228 235 248 242 230 246 261 220 196 257 255 251 249 248 249 250 249 247 242 237 234 232 234
198 196 195 194 195 195 196 198 197 195 195 196 195 198 200 201 203 203 204 206 208 211 213 218 222 226 234 234 214 204 213 218 213 201 196 196 187 187 206 200 157 108 75 73 82 90 114 115 124 131 121 124 113 68 56 83 103 70 47 306 315 334 300 249 236 237 227 245 247 228 252 277 168 187 243 247 248 248 246 244 244 243 242 239 235 233 232 233
203 202 202 201 201 200 201 203 202 201 201 199 198 199 199 201 203 203 205 205 210 214 218 222 224 229 235 240 234 229 225 233 220 202 199 201 196 197 205 194 169 145 107 79 92 99 113 113 119 133 122 138 136 77 88 92 88 60 53 299 308 354 330 248 232 226 199 224 240 189 274 276 200 227 241 244 245 244 241 239 240 238 237 237 235 234 233 234
215 212 212 212 212 212 213 212 211 211 211 209 208 205 203 204 205 206 207 207 212 216 221 225 227 232 236 245 246 240 237 245 238 206 200 203 202 202 203 196 192 185 177 133 107 105 115 110 102 117 122 132 132 117 121 81 74 62 51 50 320 359 336 264 203 188 178 202 181 145 265 271 236 241 241 241 239 233 234 235 235 235 236 236 236 237 238 238
226 226 225 223 221 223 224 223 221 220 221 222 221 218 215 213 212 213 213 212 215 219 225 227 229 233 236 243 249 244 237 238 233 210 201 205 206 203 203 199 203 204 202 193 134 117 116 96 94 111 111 112 121 124 100 31 45 23 8 21 16 7 285 292 52 151 156 207 177 147 251 267 262 260 247 238 236 230 233 236 235 236 236 237 238 240 242 243
231 231 232 231 228 227 229 230 228 226 226 227 228 228 228 225 224 222 221 220 220 222 226 228 230 231 240 250 247 244 237 230 224 212 204 206 210 210 207 204 207 210 210 201 183 165 127 96 102 96 97 108 118 111 31 1 20 29 338 311 351 160 266 307 267 168 153 200 171 151 247 269 273 277 264 233 226 225 233 238 238 239 239 239 240 242 245 247
235 234 233 234 232 232 233 234 235 235 232 232 234 234 233 233 232 229 228 225 223 226 225 228 229 221 236 257 245 243 236 228 221 214 209 208 211 213 209 209 212 212 208 202 202 196 211 189 98 86 100 118 111 87 44 10 345 2 52 248 274 169 273 319 295 193 170 104 175 191 245 275 279 283 287 222 217 221 230 239 241 242 244 242 243 245 247 249
240 238 237 237 236 235 235 235 237 239 238 241 245 245 243 240 237 235 230 224 222 222 219 220 222 219 239 253 244 240 231 224 220 216 213 210 212 213 210 209 207 208 205 200 208 204 212 130 117 97 75 80 87 90 62 332 296 318 13 244 240 200 214 301 317 253 158 117 212 227 235 255 263 277 293 248 226 225 229 242 247 246 248 245 246 247 248 249
244 243 242 241 241 240 238 237 238 239 240 243 250 253 253 250 244 240 229 220 209 197 206 199 170 183 244 236 232 231 227 223 219 215 212 209 209 209 208 205 201 202 190 188 205 182 155 88 103 82 27 27 58 101 139 228 211 201 185 200 249 240 218 251 287 254 150 134 232 218 242 258 267 277 276 264 240 233 238 249 252 252 252 249 248 248 249 250
242 244 244 244 244 244 242 241 240 242 241 242 248 251 254 254 247 241 226 210 192 170 192 201 186 160 217 220 222 225 226 220 214 211 208 205 204 204 202 197 190 178 151 150 194 133 123 85 80 78 257 225 192 166 190 201 164 161 171 155 180 222 254 236 250 253 181 175 239 225 235 252 261 272 271 265 245 238 248 255 256 255 253 251 250 250 250 250
241 242 242 243 243 244 244 243 244 244 242 243 244 241 237 210 167 247 220 212 209 205 213 210 202 200 164 201 217 220 218 210 207 205 201 201 200 196 190 179 164 148 135 149 173 118 111 113 146 212 217 209 203 190 177 150 124 116 127 136 183 213 269 253 253 281 191 172 248 235 233 252 257 263 268 268 248 237 246 252 255 255 253 251 250 251 252 252
243 241 241 242 242 243 243 243 245 244 242 242 236 228 214 187 175 252 218 224 230 222 225 231 211 211 220 237 212 209 203 196 200 200 198 198 194 189 183 169 141 131 187 129 115 96 103 140 221 227 215 201 196 169 131 113 99 84 121 178 256 219 256 253 244 297 191 175 266 264 252 256 254 259 267 270 243 234 242 245 253 256 255 253 252 253 253 253
248 245 243 242 241 241 242 242 243 242 241 238 231 224 219 215 218 228 228 252 256 238 232 235 226 218 222 232 223 201 192 184 194 197 195 191 189 190 181 160 138 157 167 103 99 63 88 219 242 228 156 108 105 127 133 129 108 90 118 157 271 246 272 278 283 330 37 189 272 301 278 262 257 260 265 261 246 245 250 249 255 259 257 255 255 256 255 252
252 248 243 242 241 240 240 240 239 238 237 235 232 225 224 231 229 231 254 292 281 259 239 234 234 228 222 226 226 207 195 191 193 192 191 187 186 189 175 155 141 139 138 158 156 144 170 246 250 206 143 118 83 100 120 116 129 160 150 170 246 241 262 282 295 333 35 195 287 307 287 271 259 259 260 256 250 251 257 256 258 259 256 258 260 260 258 254
255 251 246 241 239 239 238 238 236 236 235 234 234 228 226 231 231 235 251 289 289 264 247 240 236 232 226 224 225 213 205 211 206 192 191 187 178 178 180 164 139 134 175 189 174 178 217 257 258 151 154 151 121 115 134 142 233 238 199 198 222 224 217 235 292 328 333 353 17 346 299 274 238 242 250 260 258 255 257 256 259 259 258 260 260 259 258 257
252 253 253 242 235 233 233 235 233 232 233 233 232 227 224 224 223 232 232 296 296 266 253 241 233 235 230 223 221 210 206 224 223 203 195 191 182 168 169 167 152 179 204 180 163 218 244 248 127 123 148 152 137 155 174 168 209 272 231 206 215 221 226 249 344 5 355 333 348 17 311 282 246 240 254 283 322 263 258 257 257 259 260 258 257 257 256 256
250 251 251 245 237 225 223 230 231 229 229 232 231 220 216 212 200 198 157 43 295 248 213 210 213 227 220 212 202 185 204 240 222 208 197 194 191 174 151 158 147 195 187 154 158 238 240 208 134 126 142 154 158 203 215 180 164 272 251 207 211 211 217 246 196 58 287 264 297 49 4 281 279 236 247 254 258 264 269 268 261 261 262 258 257 260 259 256
247 249 248 248 239 220 215 219 224 222 220 228 225 205 201 193 174 173 138 25 280 195 150 179 186 192 200 197 186 174 194 205 188 202 196 190 193 184 172 168 123 175 160 128 218 248 168 163 126 119 127 143 171 219 221 173 149 240 250 168 175 181 197 210 165 184 239 262 313 33 111 277 280 252 244 222 233 273 280 272 266 262 262 262 262 264 263 261
240 245 246 247 245 230 217 214 222 218 213 219 207 191 183 174 164 150 123 341 256 150 148 175 168 179 184 181 183 177 135 143 148 194 191 186 190 186 190 192 167 176 169 150 211 253 144 173 186 159 143 173 197 221 190 157 154 250 220 121 136 155 163 139 131 181 307 8 303 291 135 256 275 263 332 42 218 257 262 256 259 260 263 267 269 269 269 266
232 238 243 244 248 241 221 215 223 214 206 202 181 176 167 159 156 118 93 223 197 113 141 165 157 169 158 162 183 180 135 139 129 176 180 183 189 183 187 196 172 158 187 196 215 245 97 186 192 162 159 200 208 256 181 165 177 196 137 94 82 80 82 89 112 127 51 335 250 221 166 231 275 236 108 59 207 226 243 248 256 263 268 272 273 275 274 269
232 234 239 238 233 229 219 217 218 201 183 170 163 165 158 152 142 112 166 228 194 110 114 154 167 164 150 149 187 190 141 125 110 146 164 180 184 174 119 162 152 123 198 291 264 239 348 95 171 168 176 178 136 62 96 152 146 139 114 69 55 37 41 55 51 86 61 279 247 207 184 188 273 261 167 195 212 208 223 245 261 268 270 268 272 277 273 269
235 232 232 234 230 226 223 220 213 190 171 161 160 158 151 143 107 156 200 241 23 137 119 151 178 152 155 156 176 184 145 87 138 147 154 170 175 163 121 140 130 89 5 290 273 302 334 98 200 199 170 133 105 65 29 65 118 119 90 80 73 352 11 26 356 51 175 258 268 247 200 190 238 260 230 243 259 229 211 231 256 268 270 265 269 280 278 273
240 236 229 230 234 234 232 229 215 187 170 163 162 158 149 137 292 220 214 58 70 198 160 169 185 160 165 163 173 173 141 113 166 164 156 152 171 184 184 182 164 126 251 236 242 342 273 233 254 187 180 162 120 76 36 18 41 88 95 111 101 331 348 345 304 68 232 253 275 334 241 221 243 252 251 257 264 247 221 227 241 256 270 274 277 279 280 279
239 239 232 229 233 236 238 239 220 188 174 169 166 157 138 168 196 213 217 185 206 212 134 120 128 151 157 158 185 169 133 169 179 173 159 143 174 207 227 229 186 164 193 194 192 248 266 294 272 135 223 194 167 152 164 215 188 160 144 142 142 150 172 272 270 268 269 269 288 328 204 251 269 264 241 238 243 242 238 244 250 257 268 275 278 276 275 274
227 233 237 236 235 234 238 238 218 191 176 169 166 147 134 191 194 204 213 214 216 41 69 106 110 134 159 167 199 165 147 222 177 154 154 147 171 213 230 238 215 169 93 142 169 181 219 285 207 177 198 185 185 192 168 137 159 187 158 142 158 162 172 215 222 230 262 285 297 291 220 206 214 264 246 243 257 255 249 253 258 263 266 271 275 273 270 266
223 219 229 235 231 226 229 229 214 192 177 164 157 164 177 192 204 206 213 211 183 56 44 92 108 132 191 273 275 184 170 225 175 145 161 172 190 205 199 209 203 169 134 178 219 161 201 266 239 230 160 168 182 192 131 109 144 217 123 118 192 187 159 178 205 183 188 311 298 239 224 216 212 269 267 264 279 266 253 256 257 258 261 266 270 271 270 266
240 226 221 227 225 223 222 220 209 189 176 163 153 202 197 202 204 196 201 180 162 132 105 90 90 131 200 241 269 220 214 93 155 154 193 200 223 210 199 212 198 185 180 182 186 140 170 273 282 343 33 173 188 173 130 136 185 166 138 175 213 174 127 118 246 57 74 273 273 208 247 289 313 280 270 253 261 264 268 267 255 253 257 262 264 265 267 268
252 245 239 228 224 224 221 220 209 185 176 170 176 197 200 218 211 190 184 154 145 141 137 163 185 163 186 196 205 206 200 96 156 178 194 184 245 214 203 228 197 193 201 188 190 198 171 258 295 73 195 258 6 103 80 51 120 124 184 199 172 100 90 106 223 354 44 253 273 239 251 285 296 275 312 46 248 258 261 258 257 261 260 257 260 263 266 268
257 257 252 238 229 223 220 221 208 185 180 185 206 207 206 219 213 191 157 142 138 151 171 202 195 170 182 189 196 188 177 171 176 190 186 178 245 210 184 207 200 198 204 193 207 246 164 239 298 70 194 284 39 119 94 14 80 129 183 177 132 143 201 116 163 217 197 244 281 300 280 265 213 228 286 213 225 238 247 252 263 267 257 255 265 274 275 269
253 260 255 245 233 222 221 219 199 184 185 195 205 217 222 217 223 220 175 163 161 172 193 205 191 169 186 181 168 168 181 187 173 179 188 187 235 206 178 191 203 199 196 185 193 238 143 205 270 321 272 325 38 163 186 196 33 47 93 145 113 127 174 166 152 171 185 231 281 317 311 269 218 199 199 213 217 212 229 245 250 252 253 262 282 293 291 278
238 240 256 249 235 224 221 212 193 184 192 204 199 209 209 210 227 233 223 207 188 193 205 207 185 165 183 181 158 169 191 193 173 183 206 192 214 237 191 185 169 172 183 183 192 175 117 207 243 323 334 195 190 213 195 182 169 148 154 172 183 102 115 166 147 129 137 166 213 278 284 268 238 184 188 206 213 203 211 226 237 249 256 275 298 307 311 300
231 232 247 241 236 223 209 201 191 188 199 204 212 218 213 212 209 219 224 223 223 224 217 211 196 183 174 177 188 186 181 183 179 190 222 204 208 243 200 181 158 135 152 177 202 196 168 194 189 186 227 207 223 244 214 196 186 181 187 191 186 166 139 160 230 208 138 182 191 178 262 267 238 183 195 198 206 204 203 214 248 262 271 294 306 315 326 322
229 241 233 215 221 204 194 193 192 194 195 204 215 208 197 211 208 205 214 216 229 258 250 236 213 199 181 179 191 174 161 175 186 192 222 219 212 222 198 182 168 155 150 170 204 194 157 121 159 199 213 217 240 271 237 213 182 152 201 200 172 161 166 176 210 214 157 226 189 119 265 271 234 182 202 199 221 233 214 215 250 268 281 303 311 322 331 329
230 243 237 208 213 198 190 194 208 196 210 231 220 203 187 202 204 187 197 204 210 221 222 233 218 208 207 182 172 167 172 187 192 196 214 225 222 223 195 181 169 158 156 169 199 166 126 131 197 226 311 308 309 337 1 63 109 130 252 180 163 189 194 181 194 182 160 210 181 122 255 263 253 223 240 238 264 273 246 233 248 264 276 301 316 329 333 325
242 247 237 211 210 201 191 197 206 199 223 231 223 219 217 220 210 195 196 201 201 192 203 222 229 221 219 161 158 179 188 194 203 206 210 218 224 217 189 180 173 167 178 188 175 165 166 191 192 185 317 322 323 322 301 262 169 201 223 196 194 196 176 135 126 126 193 217 182 168 244 248 258 308 292 296 309 285 262 250 247 255 267 303 330 331 324 314
258 254 241 214 204 200 203 210 201 193 211 214 220 217 216 227 222 215 214 208 208 205 205 217 207 199 209 171 166 184 194 205 215 210 213 229 246 209 190 185 180 185 202 199 173 166 171 190 177 184 217 224 229 236 219 186 148 202 215 198 200 191 176 183 187 166 228 219 169 191 237 242 328 305 283 300 311 278 270 261 243 244 256 300 326 320 313 306
255 242 232 211 200 199 210 215 205 195 195 204 218 212 213 227 224 218 219 217 216 213 217 243 186 176 196 185 179 188 205 218 222 191 200 219 221 346 195 191 190 197 208 187 163 158 151 212 190 198 213 218 228 231 152 132 148 208 212 194 198 200 192 193 192 202 217 185 170 220 231 240 262 247 245 269 256 246 266 263 244 237 247 292 303 303 301 298
250 234 196 209 205 203 209 209 202 200 190 192 195 185 207 220 226 214 211 215 218 211 216 246 189 191 202 195 202 208 201 212 220 203 207 209 203 13 184 188 199 206 202 163 162 154 85 233 205 209 219 227 237 224 159 153 175 201 204 196 200 202 193 194 209 214 188 144 230 235 219 238 253 233 212 240 243 244 255 251 250 253 268 284 289 290 288 287
229 251 218 212 220 215 212 200 198 202 191 186 186 159 194 215 223 208 203 216 221 210 209 222 208 213 213 203 210 218 196 201 216 216 220 210 166 96 155 180 214 207 186 166 175 161 135 218 214 212 222 234 236 202 179 187 191 200 202 199 200 197 193 201 214 214 178 183 239 235 162 215 247 240 216 213 209 232 245 248 259 269 272 274 277 277 278 279
223 250 255 243 246 268 287 259 206 208 198 179 174 182 187 200 212 211 199 207 226 214 205 215 220 220 218 211 210 212 205 205 217 217 214 205 183 165 178 215 220 201 176 169 192 181 173 221 222 203 219 239 234 196 186 201 200 207 210 204 198 197 200 207 215 215 201 218 244 241 192 235 247 233 205 202 213 235 250 257 260 262 263 265 265 266 270 273
222 230 248 258 260 262 281 291 259 235 217 191 186 200 198 198 206 209 200 191 202 206 202 218 227 220 216 216 212 216 216 211 220 224 203 198 205 186 194 207 177 178 181 172 189 204 196 224 226 174 215 247 236 206 193 200 201 211 219 217 211 207 207 211 216 215 211 233 246 248 257 262 254 183 180 198 213 233 251 257 253 252 254 256 256 259 263 266
236 237 241 258 274 245 257 259 231 249 240 206 197 189 191 209 210 206 210 207 206 201 193 216 232 230 222 222 217 224 228 220 226 235 193 200 215 207 206 201 142 145 189 176 133 159 195 218 117 123 219 247 233 201 191 194 208 229 232 226 218 212 208 210 214 211 206 223 238 243 251 254 236 137 171 196 208 227 244 250 252 254 253 250 250 253 258 262
240 244 246 250 254 225 231 235 208 226 235 212 209 197 191 208 203 191 213 222 216 220 215 216 231 236 231 231 226 230 238 240 248 266 255 234 232 222 211 197 171 167 176 161 147 168 177 193 184 163 216 246 230 180 167 143 121 240 235 228 220 210 202 205 215 217 210 210 219 227 237 242 230 154 183 204 208 223 238 246 251 254 253 251 251 253 258 264